Portada
METAR-TAF:

METAR-TAF

Aeroports :

Knoxville Municipal Airport

Knoxville, Iowa, Estats Units d'Amèrica

latitud: 41-18N, longitud: 093-07W, altitud: 283 m

Observació

L'informe es va fer fa 17 minuts, a les 12:55 UTC
Vent 10 kt del Sud-Oest amb ràfegues de 15 kt
Temperatura 2°C
Humitat 80%
Pressió 1021 hPa
Visibilitat: 16.1 km
Cel clar

METAR: KOXV 161255Z AUTO 22010G15KT 10SM CLR 02/M01 A3016 RMK AO2

Hora: 08:12 (13:12 UTC)


TAF: manca

Observacions i pronòstics meteorològics de més de 4000 aeroports (METAR i TAF).

Les estacions disponibles són els punts grocs i vermells al mapa.

Posi el ratolí al punt desitjat per veure el nom de l'estació.

Feu clic per veure les observacions i els pronòstics meteorològics.

Per canviar el mapa: feu clic els botons verds amb una creu de color negre per apropar; al botó verd amb un guió per allunyar la imatge; o en les fletxes verdes per a mapes adjacents.


METAR-TAF: